Location: Recife
(8.0585°S, 34.8848°W)
Time: 13:35:16
(UTC-03:00)

Transit 4A - Pass Details

Date: 21 April 2026
Orbit: 861 x 980 km, 66.8° (Epoch: 12 May)

Event Time Altitude Azimuth Distance (km) Brightness Sun altitude
Rises 10:45:18 0° 196° (SSW) 3,444 10.7 68.3°
Reaches altitude 10° 10:47:47 10° 194° (SSW) 2,509 10.1 68.6°
Maximum altitude 10:53:32 70° 110° (ESE) 926 9.3 69.0°
Drops below altitude 10° 10:59:23 10° 27° (NNE) 2,545 10.7 69.4°
Sets 11:01:54 0° 25° (NNE) 3,498 11.2 69.5°
